This is the latest recevied weather packets stored in our database for station/object KM8V-8. If no packets are shown the sender has not sent any weather packets the latest 10 day(s).
| Time | Temp. | Humidity | Pressure | Rain* | Wind** | Luminosity | Snow |
|---|---|---|---|---|---|---|---|
| 1777408818 | 20.56° C | 62% | 1010.9 hPa | 0 mm | - | 427 W/m² | - |
| 1777408518 | 20.56° C | 63% | 1010.9 hPa | 0 mm | - | 469 W/m² | - |
| 1777408219 | 20.56° C | 61% | 1011 hPa | 0 mm | - | 435 W/m² | - |
| 1777407919 | 20.56° C | 62% | 1010.9 hPa | 0 mm | - | 700 W/m² | - |
| 1777407618 | 20.56° C | 63% | 1011 hPa | 0 mm | - | 605 W/m² | - |
| 1777407319 | 20° C | 63% | 1010.9 hPa | 0 mm | - | 696 W/m² | - |
| 1777407016 | 20° C | 62% | 1010.9 hPa | 0 mm | - | 546 W/m² | - |
| 1777406719 | 20.56° C | 62% | 1010.9 hPa | 0 mm | - | 504 W/m² | - |
| 1777406416 | 20.56° C | 63% | 1010.9 hPa | 0 mm | - | 663 W/m² | - |
| 1777406117 | 20.56° C | 63% | 1010.9 hPa | 0 mm | - | 491 W/m² | - |
| 1777405820 | 20.56° C | 64% | 1010.9 hPa | 0 mm | - | 594 W/m² | - |
| 1777405520 | 20.56° C | 62% | 1010.9 hPa | 0 mm | - | 368 W/m² | - |
| 1777405219 | 20.56° C | 62% | 1010.9 hPa | 0 mm | - | 755 W/m² | - |
| 1777404919 | 20.56° C | 63% | 1010.8 hPa | 0 mm | - | 685 W/m² | - |
| 1777404619 | 20.56° C | 63% | 1010.8 hPa | 0 mm | - | 370 W/m² | - |
| 1777404319 | 21.11° C | 62% | 1010.8 hPa | 0 mm | - | 513 W/m² | - |
| 1777404020 | 21.67° C | 61% | 1010.8 hPa | 0 mm | - | 500 W/m² | - |
| 1777403722 | 21.67° C | 59% | 1010.8 hPa | 0 mm | - | 837 W/m² | - |
| 1777403416 | 21.67° C | 60% | 1010.8 hPa | 0 mm | - | 865 W/m² | - |
| 1777403117 | 21.11° C | 61% | 1010.8 hPa | 0 mm | - | 747 W/m² | - |
| 1777402818 | 21.11° C | 62% | 1010.7 hPa | 0 mm | - | 684 W/m² | - |
| 1777402517 | 21.11° C | 63% | 1010.7 hPa | 0 mm | - | 503 W/m² | - |
| 1777402220 | 21.11° C | 63% | 1010.6 hPa | 0 mm | - | 703 W/m² | - |
| 1777401920 | 21.11° C | 62% | 1010.6 hPa | 0 mm | - | 374 W/m² | - |
| 1777401620 | 21.11° C | 62% | 1010.6 hPa | 0 mm | - | 519 W/m² | - |
* Rain latest hour (hover to see other rain measurements)
** Current wind speed in m/s (hover to see current wind gust speed)